EN

Hourly Weather Goes

Today, 18 May, Tuesday

Time Temperature Precipitation Wind Pressure Humidity
00:00 +10°C° 0 mm 4 mps 756 mmHg 91%
01:00 +9°C° 0.2 mm 5 mps 757 mmHg 91%
02:00 +8°C° 0.2 mm 5 mps 757 mmHg 92%
03:00 +8°C° 0.2 mm 5 mps 757 mmHg 92%
04:00 +9°C° 0 mm 5 mps 757 mmHg 90%
05:00 +9°C° 0 mm 5 mps 758 mmHg 89%
06:00 +9°C° 0 mm 5 mps 758 mmHg 87%
07:00 +10°C° 0 mm 5 mps 758 mmHg 80%
08:00 +12°C° 0 mm 5 mps 759 mmHg 73%
09:00 +13°C° 0 mm 5 mps 759 mmHg 66%
10:00 +13°C° 0 mm 5 mps 759 mmHg 63%
11:00 +14°C° 0 mm 5 mps 759 mmHg 61%
12:00 +14°C° 0 mm 5 mps 760 mmHg 58%
13:00 +14°C° 0 mm 5 mps 760 mmHg 58%
14:00 +14°C° 0 mm 5 mps 760 mmHg 58%
15:00 +14°C° 0 mm 5 mps 760 mmHg 58%
16:00 +13°C° 0 mm 4 mps 760 mmHg 63%
17:00 +13°C° 0 mm 4 mps 760 mmHg 67%
18:00 +13°C° 0 mm 4 mps 760 mmHg 72%
19:00 +11°C° 0 mm 4 mps 761 mmHg 78%
20:00 +10°C° 0 mm 4 mps 761 mmHg 85%
21:00 +8°C° 0 mm 4 mps 761 mmHg 91%
22:00 +8°C° 0.1 mm 4 mps 761 mmHg 91%
23:00 +8°C° 0.1 mm 5 mps 761 mmHg 91%

Tomorrow, 19 May, Wednesday

Time Temperature Precipitation Wind Pressure Humidity
00:00 +7°C° 0.1 mm 5 mps 761 mmHg 91%
01:00 +7°C° 0.1 mm 5 mps 761 mmHg 92%
02:00 +7°C° 0.1 mm 5 mps 761 mmHg 94%
03:00 +6°C° 0.1 mm 5 mps 761 mmHg 95%
04:00 +7°C° 0.1 mm 5 mps 761 mmHg 92%
05:00 +8°C° 0.1 mm 6 mps 761 mmHg 89%
06:00 +9°C° 0.1 mm 6 mps 761 mmHg 86%
07:00 +9°C° 0.4 mm 6 mps 761 mmHg 86%
08:00 +9°C° 0.4 mm 5 mps 761 mmHg 86%
09:00 +9°C° 0.4 mm 5 mps 761 mmHg 87%
10:00 +11°C° 0.4 mm 4 mps 761 mmHg 83%
11:00 +12°C° 0.4 mm 4 mps 761 mmHg 79%
12:00 +12°C° 0.4 mm 4 mps 761 mmHg 75%
13:00 +12°C° 0.2 mm 4 mps 762 mmHg 75%
14:00 +13°C° 0.2 mm 4 mps 762 mmHg 74%
15:00 +13°C° 0.2 mm 4 mps 762 mmHg 74%
16:00 +12°C° 0 mm 4 mps 762 mmHg 75%
17:00 +12°C° 0 mm 4 mps 763 mmHg 75%
18:00 +12°C° 0 mm 4 mps 763 mmHg 76%
19:00 +11°C° 0 mm 3 mps 763 mmHg 80%
20:00 +9°C° 0 mm 3 mps 764 mmHg 84%
21:00 +8°C° 0 mm 2 mps 764 mmHg 88%
22:00 +8°C° 0 mm 2 mps 764 mmHg 88%
23:00 +8°C° 0 mm 2 mps 765 mmHg 88%

Day after tomorrow, 20 May, Thursday

Time Temperature Precipitation Wind Pressure Humidity
00:00 +7°C° 0 mm 2 mps 765 mmHg 87%
01:00 +7°C° 0 mm 2 mps 765 mmHg 88%
02:00 +7°C° 0 mm 2 mps 765 mmHg 89%
03:00 +7°C° 0 mm 2 mps 765 mmHg 90%
04:00 +8°C° 0 mm 2 mps 765 mmHg 89%
05:00 +9°C° 0 mm 3 mps 765 mmHg 87%
06:00 +10°C° 0 mm 3 mps 765 mmHg 85%
07:00 +11°C° 0 mm 4 mps 765 mmHg 78%
08:00 +13°C° 0 mm 4 mps 765 mmHg 71%
09:00 +14°C° 0 mm 4 mps 766 mmHg 64%
10:00 +15°C° 0 mm 5 mps 765 mmHg 59%
11:00 +15°C° 0 mm 5 mps 765 mmHg 55%
12:00 +16°C° 0 mm 5 mps 765 mmHg 51%
13:00 +15°C° 0.1 mm 5 mps 764 mmHg 55%
14:00 +15°C° 0.1 mm 5 mps 764 mmHg 59%
15:00 +15°C° 0.1 mm 6 mps 764 mmHg 62%
16:00 +14°C° 0.1 mm 5 mps 763 mmHg 65%
17:00 +14°C° 0.1 mm 5 mps 763 mmHg 68%
18:00 +13°C° 0.1 mm 5 mps 762 mmHg 71%
19:00 +11°C° 0.1 mm 6 mps 762 mmHg 72%
20:00 +11°C° 0.1 mm 7 mps 761 mmHg 73%
21:00 +11°C° 0.1 mm 8 mps 761 mmHg 74%
22:00 +11°C° 0 mm 8 mps 760 mmHg 72%
23:00 +11°C° 0 mm 8 mps 759 mmHg 71%

21 May, Friday

Time Temperature Precipitation Wind Pressure Humidity
00:00 +11°C° 0 mm 8 mps 758 mmHg 69%
01:00 +11°C° 0 mm 8 mps 758 mmHg 70%
02:00 +11°C° 0 mm 8 mps 757 mmHg 71%
03:00 +11°C° 0 mm 8 mps 756 mmHg 72%
04:00 +11°C° 0 mm 8 mps 756 mmHg 75%
05:00 +10°C° 0 mm 8 mps 756 mmHg 78%
06:00 +10°C° 0 mm 9 mps 756 mmHg 82%
07:00 +10°C° 0 mm 8 mps 755 mmHg 80%
08:00 +11°C° 0 mm 8 mps 755 mmHg 78%
09:00 +11°C° 0 mm 8 mps 754 mmHg 76%
10:00 +12°C° 0.1 mm 8 mps 754 mmHg 72%
11:00 +13°C° 0.1 mm 8 mps 753 mmHg 68%
12:00 +13°C° 0.1 mm 8 mps 753 mmHg 64%
13:00 +15°C° 0.1 mm 9 mps 752 mmHg 62%
14:00 +15°C° 0.1 mm 9 mps 752 mmHg 59%
15:00 +15°C° 0.1 mm 9 mps 751 mmHg 57%
16:00 +15°C° 0 mm 9 mps 751 mmHg 59%
17:00 +13°C° 0 mm 9 mps 751 mmHg 62%
18:00 +12°C° 0 mm 9 mps 750 mmHg 64%
19:00 +12°C° 0 mm 9 mps 750 mmHg 65%
20:00 +11°C° 0 mm 9 mps 750 mmHg 66%
21:00 +10°C° 0 mm 9 mps 749 mmHg 67%
22:00 +9°C° 0 mm 10 mps 749 mmHg 71%
23:00 +9°C° 0 mm 10 mps 749 mmHg 74%

22 May, Saturday

Time Temperature Precipitation Wind Pressure Humidity
00:00 +9°C° 0 mm 11 mps 749 mmHg 77%
01:00 +8°C° 0.1 mm 11 mps 748 mmHg 77%
02:00 +8°C° 0.1 mm 11 mps 748 mmHg 77%
03:00 +8°C° 0.1 mm 11 mps 748 mmHg 77%
04:00 +8°C° 0.4 mm 11 mps 748 mmHg 80%
05:00 +7°C° 0.4 mm 11 mps 748 mmHg 84%
06:00 +7°C° 0.4 mm 11 mps 748 mmHg 88%
07:00 +7°C° 0.5 mm 11 mps 748 mmHg 88%
08:00 +7°C° 0.5 mm 11 mps 748 mmHg 89%
09:00 +7°C° 0.5 mm 11 mps 748 mmHg 90%
10:00 +8°C° 0.3 mm 11 mps 749 mmHg 85%
11:00 +9°C° 0.3 mm 11 mps 749 mmHg 81%
12:00 +9°C° 0.3 mm 11 mps 750 mmHg 76%
13:00 +11°C° 0.1 mm 11 mps 750 mmHg 72%
14:00 +11°C° 0.1 mm 10 mps 751 mmHg 68%
15:00 +11°C° 0.1 mm 10 mps 751 mmHg 64%
16:00 +11°C° 0.1 mm 10 mps 752 mmHg 66%
17:00 +9°C° 0.1 mm 10 mps 752 mmHg 69%
18:00 +9°C° 0.1 mm 10 mps 752 mmHg 71%
19:00 +8°C° 0.1 mm 10 mps 753 mmHg 72%
20:00 +8°C° 0.1 mm 9 mps 753 mmHg 73%
21:00 +7°C° 0.1 mm 9 mps 754 mmHg 74%
22:00 +7°C° 0.1 mm 9 mps 754 mmHg 75%
23:00 +7°C° 0.1 mm 9 mps 754 mmHg 76%

23 May, Sunday

Time Temperature Precipitation Wind Pressure Humidity
00:00 +6°C° 0.1 mm 9 mps 754 mmHg 77%
01:00 +6°C° 0 mm 9 mps 755 mmHg 77%
02:00 +6°C° 0 mm 9 mps 755 mmHg 78%
03:00 +5°C° 0 mm 8 mps 756 mmHg 78%
04:00 +6°C° 0.1 mm 8 mps 756 mmHg 79%
05:00 +6°C° 0.1 mm 8 mps 757 mmHg 79%
06:00 +6°C° 0.1 mm 8 mps 757 mmHg 80%
07:00 +7°C° 0.2 mm 8 mps 757 mmHg 76%
08:00 +9°C° 0.2 mm 8 mps 758 mmHg 71%
09:00 +10°C° 0.2 mm 8 mps 758 mmHg 67%
10:00 +11°C° 0.2 mm 9 mps 758 mmHg 62%
11:00 +11°C° 0.2 mm 9 mps 758 mmHg 57%
12:00 +12°C° 0.2 mm 9 mps 758 mmHg 53%
13:00 +11°C° 0.1 mm 10 mps 758 mmHg 57%
14:00 +11°C° 0.1 mm 10 mps 758 mmHg 60%
15:00 +11°C° 0.1 mm 10 mps 758 mmHg 64%
16:00 +11°C° 0 mm 9 mps 758 mmHg 65%
17:00 +10°C° 0 mm 9 mps 758 mmHg 65%
18:00 +10°C° 0 mm 9 mps 758 mmHg 66%
19:00 +8°C° 0.3 mm 9 mps 758 mmHg 73%
20:00 +8°C° 0.3 mm 9 mps 758 mmHg 80%
21:00 +7°C° 0.3 mm 9 mps 758 mmHg 87%
22:00 +7°C° 0.3 mm 10 mps 758 mmHg 87%
23:00 +7°C° 0.3 mm 10 mps 758 mmHg 86%
Show more